Harrisburg, IL

11:37 PM CST on December 07, 2019 (GMT -0600)
Harrisburg-Raleigh

Weather History for KHSB - October, 2019

Change the Weather History Date:

Wednesday, October 23, 2019

  Actual Average (KMWA) Record (KMWA)
Temperature  
Mean Temperature 50 °F -  
Max Temperature 69 °F 65 °F 83 °F (2010)
Min Temperature 33 °F 42 °F 27 °F (1976)
Degree Days  
Heating Degree Days 14    
Moisture  
Dew Point 31 °F    
Average Humidity 53    
Maximum Humidity 92    
Minimum Humidity 17    
Precipitation  
Precipitation 0.00 in - - ()
Sea Level Pressure  
Sea Level Pressure 30.09 in    
Wind  
Wind Speed 4 mph ()    
Max Wind Speed 22 mph    
Max Gust Speed 28 mph    
Visibility 10.0 miles    
Events      
Averages and records for this station are not official NWS values.
T = Trace of Precipitation, MM = Missing Value Source: Averaged Metar Reports

Daily Weather History Graph

Daily Weather History Graph

Search for Another Location

Airport or City:

Astronomy

Oct. 23, 2019 Rise Set
Actual Time 7:10 AM CDT 6:06 PM CDT
Civil Twilight 6:43 AM CDT 6:33 PM CDT
Nautical Twilight 6:12 AM CDT 7:03 PM CDT
Astronomical Twilight 5:42 AM CDT 7:34 PM CDT
Moon 1:36 AM CDT (10/23) 3:49 PM CDT (10/23)
Length of Visible Light 11h 49m
Length of Day
10h 56m
Waning Crescent, 26% of the Moon is Illuminated
Oct 23
Waning Crescent
Oct 27
New
Nov 4
First Quarter
Nov 12
Full
Nov 19
Last Quarter

Hourly Weather History & Observations

Time (CDT) Temp. Dew Point Humidity Pressure Visibility Wind Dir Wind Speed Gust Speed Precip Events Conditions
12:15 AM 40.1 °F 32.9 °F 75% 30.05 in 10.0 mi Calm Calm - N/A   Clear
12:35 AM 40.5 °F 32.7 °F 74% 30.06 in 10.0 mi Calm Calm - N/A   Clear
12:55 AM 39.9 °F 32.9 °F 76% 30.06 in 10.0 mi Calm Calm - N/A   Clear
1:15 AM 38.1 °F 33.3 °F 83% 30.07 in 10.0 mi Calm Calm - N/A   Clear
1:35 AM 37.8 °F 33.8 °F 86% 30.07 in 10.0 mi Calm Calm - N/A   Clear
1:55 AM 37.4 °F 34.2 °F 88% 30.07 in 10.0 mi Calm Calm - N/A   Clear
2:15 AM 37.8 °F 34.2 °F 87% 30.07 in 10.0 mi Calm Calm - N/A   Clear
2:35 AM 37.2 °F 33.6 °F 87% 30.07 in 7.0 mi Calm Calm - N/A   Clear
2:55 AM 36.5 °F 33.8 °F 90% 30.07 in 10.0 mi Calm Calm - N/A   Clear
3:15 AM 35.2 °F 32.4 °F 89% 30.07 in 10.0 mi Calm Calm - N/A   Clear
3:35 AM 35.8 °F 32.9 °F 89% 30.07 in 10.0 mi Calm Calm - N/A   Clear
3:55 AM 35.1 °F 32.2 °F 89% 30.06 in 10.0 mi Calm Calm - N/A   Clear
4:15 AM 34.3 °F 32.0 °F 91% 30.06 in 10.0 mi Calm Calm - N/A   Clear
4:35 AM 34.0 °F 31.6 °F 91% 30.07 in 10.0 mi Calm Calm - N/A   Clear
4:55 AM 34.3 °F 31.8 °F 90% 30.07 in 10.0 mi Calm Calm - N/A   Clear
5:15 AM 34.0 °F 31.8 °F 92% 30.08 in 10.0 mi Calm Calm - N/A   Clear
5:35 AM 34.0 °F 31.8 °F 92% 30.09 in 10.0 mi Calm Calm - N/A   Clear
5:55 AM 36.0 °F 33.1 °F 89% 30.09 in 10.0 mi Calm Calm - N/A   Clear
6:15 AM 34.2 °F 31.8 °F 91% 30.10 in 10.0 mi Calm Calm - N/A   Clear
6:35 AM 33.8 °F 31.3 °F 90% 30.10 in 10.0 mi Calm Calm - N/A   Clear
6:55 AM 34.9 °F 32.0 °F 89% 30.10 in 10.0 mi Calm Calm - N/A   Clear
7:15 AM 35.1 °F 32.2 °F 89% 30.10 in 10.0 mi Calm Calm - N/A   Clear
7:35 AM 35.4 °F 32.4 °F 89% 30.11 in 10.0 mi Calm Calm - N/A   Clear
7:55 AM 36.1 °F 33.1 °F 89% 30.11 in 10.0 mi Calm Calm - N/A   Clear
8:15 AM 39.9 °F 37.0 °F 89% 30.13 in 10.0 mi Calm Calm - N/A   Clear
8:35 AM 43.3 °F 39.2 °F 85% 30.13 in 10.0 mi Calm Calm - N/A   Clear
8:55 AM 46.6 °F 38.7 °F 74% 30.14 in 10.0 mi SSE 3.5 mph - N/A   Clear
9:15 AM 49.1 °F 39.2 °F 69% 30.14 in 10.0 mi SSW 3.5 mph - N/A   Clear
9:35 AM 53.1 °F 37.2 °F 55% 30.14 in 10.0 mi SSW 4.6 mph - N/A   Clear
9:55 AM 55.4 °F 35.2 °F 47% 30.15 in 10.0 mi SSW 8.1 mph - N/A   Clear
10:15 AM 57.4 °F 34.5 °F 42% 30.14 in 10.0 mi SSW 10.4 mph - N/A   Clear
10:35 AM 59.4 °F 32.5 °F 36% 30.14 in 10.0 mi SW 12.7 mph - N/A   Clear
10:55 AM 61.0 °F 30.9 °F 32% 30.14 in 10.0 mi SSW 12.7 mph - N/A   Clear
11:15 AM 62.4 °F 30.2 °F 30% 30.14 in 10.0 mi SW 11.5 mph 19.6 mph N/A   Clear
11:35 AM 63.1 °F 29.8 °F 29% 30.14 in 10.0 mi SW 15.0 mph 23.0 mph N/A   Clear
11:55 AM 64.4 °F 28.2 °F 26% 30.13 in 10.0 mi SW 18.4 mph 27.6 mph N/A   Clear
12:15 PM 65.3 °F 26.2 °F 23% 30.13 in 10.0 mi SSW 21.9 mph 27.6 mph N/A   Clear
12:35 PM 65.7 °F 27.0 °F 23% 30.12 in 10.0 mi SSW 16.1 mph 21.9 mph N/A   Clear
12:55 PM 66.6 °F 25.5 °F 21% 30.11 in 10.0 mi SSW 17.3 mph 23.0 mph N/A   Clear
1:15 PM 67.8 °F 25.7 °F 21% 30.10 in 10.0 mi SW 17.3 mph 23.0 mph N/A   Clear
1:35 PM 67.3 °F 24.1 °F 20% 30.09 in 10.0 mi SSW 15.0 mph 23.0 mph N/A   Clear
1:55 PM 68.4 °F 21.4 °F 17% 30.08 in 10.0 mi SW 16.1 mph 24.2 mph N/A   Clear
2:15 PM 68.9 °F 22.8 °F 18% 30.07 in 10.0 mi SW 17.3 mph 24.2 mph N/A   Clear
2:35 PM 68.7 °F 23.0 °F 18% 30.07 in 10.0 mi SSW 18.4 mph 25.3 mph N/A   Clear
2:55 PM 68.9 °F 24.1 °F 18% 30.06 in 10.0 mi SW 20.7 mph 26.5 mph N/A   Clear
3:15 PM 68.7 °F 26.1 °F 20% 30.06 in 10.0 mi SSW 15.0 mph 20.7 mph N/A   Clear
3:55 PM 67.8 °F 26.4 °F 21% 30.06 in 10.0 mi SSW 16.1 mph 20.7 mph N/A   Clear
4:15 PM 67.1 °F 26.1 °F 21% 30.06 in 10.0 mi SSW 15.0 mph - N/A   Clear
4:35 PM 67.6 °F 26.6 °F 21% 30.06 in 10.0 mi SSW 13.8 mph 20.7 mph N/A   Clear
4:55 PM 68.0 °F 27.3 °F 22% 30.06 in 10.0 mi South 16.1 mph 20.7 mph N/A   Clear
5:15 PM 67.1 °F 25.9 °F 21% 30.07 in 10.0 mi SSW 18.4 mph 25.3 mph N/A   Clear
5:35 PM 66.2 °F 26.8 °F 23% 30.07 in 10.0 mi SSW 12.7 mph 21.9 mph N/A   Clear
5:55 PM 64.8 °F 28.4 °F 25% 30.06 in 10.0 mi South 8.1 mph 17.3 mph N/A   Clear
6:15 PM 62.6 °F 30.4 °F 30% 30.06 in 10.0 mi South 11.5 mph - N/A   Clear
6:35 PM 61.5 °F 30.6 °F 31% 30.07 in 10.0 mi South 8.1 mph - N/A   Clear
6:55 PM 61.2 °F 30.9 °F 32% 30.07 in 10.0 mi South 10.4 mph - N/A   Clear
7:15 PM 60.6 °F 30.9 °F 33% 30.08 in 10.0 mi South 8.1 mph - N/A   Clear
7:35 PM 60.4 °F 30.6 °F 32% 30.09 in 10.0 mi South 6.9 mph - N/A   Clear
7:55 PM 59.9 °F 30.9 °F 33% 30.09 in 10.0 mi South 9.2 mph - N/A   Clear
8:15 PM 60.1 °F 30.6 °F 33% 30.09 in 10.0 mi South 9.2 mph - N/A   Clear
8:35 PM 58.3 °F 32.0 °F 37% 30.08 in 10.0 mi South 10.4 mph - N/A   Clear
8:55 PM 59.7 °F 30.9 °F 34% 30.09 in 10.0 mi South 8.1 mph - N/A   Clear
9:15 PM 59.0 °F 31.5 °F 35% 30.09 in 10.0 mi South 10.4 mph - N/A   Clear
9:35 PM 59.4 °F 31.1 °F 34% 30.10 in 10.0 mi South 6.9 mph - N/A   Clear
10:15 PM 54.5 °F 32.7 °F 44% 30.13 in 10.0 mi SW 3.5 mph - N/A   Clear
10:35 PM 54.7 °F 32.9 °F 44% 30.14 in 10.0 mi Calm Calm - N/A   Clear
10:55 PM 55.2 °F 33.6 °F 44% 30.14 in 10.0 mi South 3.5 mph - N/A   Scattered Clouds
11:15 PM 56.3 °F 34.0 °F 43% 30.14 in 10.0 mi SSW 5.8 mph - N/A   Overcast
11:35 PM 56.7 °F 34.0 °F 42% 30.14 in 10.0 mi SSW 5.8 mph - N/A   Overcast
11:55 PM 57.2 °F 33.8 °F 41% 30.14 in 10.0 mi SSW 6.9 mph - N/A   Overcast